Weather History for Edwards AFB North Base, CA

Change the Weather History Date:

Thursday, February 20, 2014

  Actual Average (KEDW) Record (KEDW)
Temperature  
Mean Temperature 50 °F -  
Max Temperature 66 °F 58 °F 73 °F (2002)
Min Temperature 33 °F 35 °F 26 °F (2012)
Degree Days  
Heating Degree Days 16    
Moisture  
Dew Point 19 °F    
Average Humidity 37    
Maximum Humidity 75    
Minimum Humidity 13    
Precipitation  
Precipitation 0.00 in - - ()
Sea Level Pressure  
Sea Level Pressure 30.12 in    
Wind  
Wind Speed 4 mph (NE)    
Max Wind Speed 10 mph    
Max Gust Speed -    
Visibility 10 miles    
Events      
Averages and records for this station are not official NWS values.
T = Trace of Precipitation, MM = Missing Value Source: NWS Daily Summary

Daily Weather History Graph

Daily Weather History Graph

Search for Another Location

Airport:

Trip Planner

Search our weather history database for the weather conditions in past years. The results will help you decide how hot, cold, wet, or windy it might be!

Date:

Astronomy

Feb. 20, 2014 Rise Set
Actual Time 6:31 AM PST 5:39 PM PST
Civil Twilight 6:06 AM PST 6:04 PM PST
Nautical Twilight 5:36 AM PST 6:34 PM PST
Astronomical Twilight 5:07 AM PST 7:03 PM PST
Moon 11:23 PM PST (2/20) 9:31 AM PST (2/20)
Length of Visible Light 11h 58m
Length of Day
11h 07m
Waning Gibbous, 70% of the Moon is Illuminated
Feb 20
Waning Gibbous
Feb 22
Last Quarter
Mar 1
New
Mar 8
First Quarter
Mar 16
Full

Hourly Weather History & Observations

Time (PST) Temp. Windchill Dew Point Humidity Pressure Visibility Wind Dir Wind Speed Gust Speed Precip Events Conditions
12:55 AM 42.1 °F 39.2 °F 30.0 °F 62% 30.04 in 10.0 mi NE 4.6 mph - N/A   Clear
1:55 AM 39.9 °F 35.8 °F 28.0 °F 63% 30.07 in 10.0 mi NW 5.8 mph - N/A   Clear
2:55 AM 39.0 °F 34.8 °F 28.0 °F 65% 30.07 in 10.0 mi North 5.8 mph - N/A   Clear
3:55 AM 37.9 °F - 28.0 °F 68% 30.11 in 10.0 mi Calm Calm - N/A   Clear
4:55 AM 37.9 °F 32.7 °F 30.0 °F 73% 30.12 in 10.0 mi NE 6.9 mph - N/A   Clear
5:55 AM 34.0 °F 31.0 °F 27.0 °F 75% 30.14 in 10.0 mi North 3.5 mph - N/A   Clear
6:55 AM 33.1 °F - 25.0 °F 72% 30.17 in 10.0 mi Calm Calm - N/A   Clear
7:55 AM 43.0 °F 41.3 °F 30.0 °F 60% 30.18 in 10.0 mi NW 3.5 mph - N/A   Clear
8:55 AM 51.1 °F - 30.9 °F 46% 30.19 in 10.0 mi Calm Calm - N/A   Clear
9:55 AM 55.9 °F - 28.9 °F 36% 30.19 in 10.0 mi NE 4.6 mph - N/A   Clear
10:55 AM 61.0 °F - 17.1 °F 18% 30.19 in 10.0 mi East 6.9 mph - N/A   Clear
11:55 AM 63.0 °F - 12.9 °F 14% 30.16 in 10.0 mi East 10.4 mph - N/A   Clear
12:55 PM 64.0 °F - 12.9 °F 14% 30.14 in 10.0 mi East 5.8 mph - N/A   Clear
1:55 PM 64.9 °F - 12.9 °F 13% 30.11 in 10.0 mi East 4.6 mph - N/A   Clear
2:55 PM 64.9 °F - 14.0 °F 14% 30.09 in 10.0 mi East 5.8 mph - N/A   Clear
3:55 PM 66.0 °F - 14.0 °F 13% 30.09 in 10.0 mi ENE 5.8 mph - N/A   Clear
4:55 PM 64.9 °F - 12.9 °F 13% 30.07 in 10.0 mi Calm Calm - N/A   Clear
5:55 PM 60.1 °F - 12.0 °F 15% 30.08 in 10.0 mi Calm Calm - N/A   Clear
6:55 PM 50.0 °F - 10.9 °F 21% 30.11 in 10.0 mi Calm Calm - N/A   Clear
7:55 PM 45.0 °F 43.5 °F 10.0 °F 24% 30.11 in 10.0 mi NNW 3.5 mph - N/A   Clear
8:55 PM 44.1 °F 42.5 °F 10.0 °F 25% 30.10 in 10.0 mi NW 3.5 mph - N/A   Clear
9:55 PM 42.1 °F - 10.0 °F 27% 30.09 in 10.0 mi Calm Calm - N/A   Clear
10:55 PM 41.0 °F 39.0 °F 10.0 °F 28% 30.08 in 10.0 mi Variable 3.5 mph - N/A   Clear
11:55 PM 39.0 °F 36.8 °F 9.0 °F 29% 30.08 in 10.0 mi SSE 3.5 mph - N/A   Clear